Weather History for Fort Smith, AR

Change the Weather History Date:

Tuesday, May 8, 2012

  Actual Average Record
Temperature  
Mean Temperature 68 °F 68 °F  
Max Temperature 75 °F 79 °F 95 °F (1918)
Min Temperature 60 °F 57 °F 40 °F (1982)
Cooling Degree Days 3 4  
Month to date cooling degree days 94 28  
Year to date cooling degree days 321 94  
Growing Degree Days 19 (Base 50)    
Moisture  
Dew Point 56 °F    
Average Humidity 64    
Maximum Humidity 84    
Minimum Humidity 44    
Precipitation  
Precipitation 0.15 in 0.18 in 2.96 in (1943)
Month to date precipitation 0.44 1.41  
Year to date precipitation 18.09 15.13  
Sea Level Pressure  
Sea Level Pressure 29.99 in    
Wind  
Wind Speed 5 mph (NNE)    
Max Wind Speed 14 mph    
Max Gust Speed 17 mph    
Visibility 10 miles    
Events Rain , Thunderstorm    
T = Trace of Precipitation, MM = Missing Value Source: NWS Daily Summary

Daily Weather History Graph

Daily Weather History Graph

Search for Another Location

Airport:

Trip Planner

Search our weather history database for the weather conditions in past years. The results will help you decide how hot, cold, wet, or windy it might be!

Date:

Astronomy

May. 08, 2012 Rise Set
Actual Time 6:18 AM CDT 8:09 PM CDT
Civil Twilight 5:50 AM CDT 8:37 PM CDT
Nautical Twilight 5:17 AM CDT 9:11 PM CDT
Astronomical Twilight 4:41 AM CDT 9:47 PM CDT
Moon 11:18 PM CDT (5/8) 8:30 AM CDT (5/8)
Length of Visible Light 14h 46m
Length of Day
13h 51m
Waning Gibbous, 90% of the Moon is Illuminated
May 8
Waning Gibbous
May 12
Last Quarter
May 20
New
May 28
First Quarter
Jun 4
Full

Hourly Weather History & Observations

Time (CDT) Temp. Dew Point Humidity Pressure Visibility Wind Dir Wind Speed Gust Speed Precip Events Conditions
12:53 AM 72.0 °F 57.9 °F 61% 29.94 in 10.0 mi NNE 13.8 mph - N/A   Overcast
1:53 AM 71.1 °F 57.9 °F 63% 29.94 in 10.0 mi NNE 9.2 mph - N/A   Overcast
2:53 AM 71.1 °F 57.9 °F 63% 29.94 in 10.0 mi NNE 8.1 mph - N/A   Mostly Cloudy
3:53 AM 70.0 °F 59.0 °F 68% 29.95 in 10.0 mi NNE 3.5 mph - N/A   Overcast
4:53 AM 70.0 °F 57.9 °F 65% 29.95 in 10.0 mi NE 5.8 mph - N/A   Overcast
5:53 AM 70.0 °F 57.0 °F 63% 29.95 in 10.0 mi NE 4.6 mph - N/A   Overcast
6:42 AM 69.8 °F 55.4 °F 60% 29.98 in 10.0 mi North 6.9 mph - N/A Thunderstorm Overcast
6:53 AM 69.1 °F 55.0 °F 61% 29.97 in 10.0 mi North 8.1 mph - N/A   Overcast
7:13 AM 69.8 °F 55.4 °F 60% 30.01 in 10.0 mi NNE 3.5 mph - N/A Thunderstorm Overcast
7:53 AM 66.9 °F 59.0 °F 76% 30.03 in 10.0 mi SSW 4.6 mph - 0.00 in Rain , Thunderstorm Light Rain
7:56 AM 66.2 °F 59.0 °F 78% 30.04 in 10.0 mi SSW 4.6 mph - 0.00 in Rain , Thunderstorm Light Rain
8:34 AM 64.4 °F 60.8 °F 88% 30.05 in 1.8 mi WSW 3.5 mph - 0.05 in Rain , Thunderstorm Heavy Rain
8:53 AM 64.0 °F 59.0 °F 84% 30.04 in 2.0 mi Calm Calm - 0.13 in Rain , Thunderstorm Rain
9:25 AM 64.4 °F 60.8 °F 88% 30.03 in 7.0 mi ENE 3.5 mph - 0.02 in Rain , Thunderstorm Light Rain
9:53 AM 66.0 °F 59.0 °F 78% 30.02 in 10.0 mi NE 4.6 mph - 0.02 in   Overcast
10:53 AM 68.0 °F 60.1 °F 76% 30.04 in 10.0 mi NE 3.5 mph - N/A   Mostly Cloudy
11:53 AM 69.1 °F 57.9 °F 68% 30.03 in 10.0 mi NNE 6.9 mph - N/A   Overcast
12:53 PM 70.0 °F 55.9 °F 61% 30.01 in 10.0 mi NNE 11.5 mph - N/A   Scattered Clouds
1:53 PM 72.0 °F 55.9 °F 57% 30.00 in 10.0 mi ENE 8.1 mph - N/A   Clear
2:53 PM 73.0 °F 54.0 °F 51% 29.98 in 10.0 mi NE 8.1 mph - N/A   Partly Cloudy
3:53 PM 73.9 °F 53.1 °F 48% 29.98 in 10.0 mi ENE 8.1 mph - N/A   Clear
4:53 PM 73.0 °F 50.0 °F 44% 29.97 in 10.0 mi North 9.2 mph - N/A   Partly Cloudy
5:53 PM 72.0 °F 52.0 °F 49% 29.97 in 10.0 mi NNE 9.2 mph - N/A   Partly Cloudy
6:53 PM 71.1 °F 52.0 °F 51% 29.97 in 10.0 mi NE 6.9 mph - N/A   Mostly Cloudy
7:53 PM 70.0 °F 52.0 °F 53% 29.99 in 10.0 mi NE 5.8 mph - N/A   Overcast
8:53 PM 68.0 °F 55.0 °F 63% 29.99 in 10.0 mi NNE 3.5 mph - N/A   Scattered Clouds
9:53 PM 66.9 °F 55.9 °F 68% 30.01 in 10.0 mi Calm Calm - N/A   Clear
10:53 PM 63.0 °F 55.9 °F 78% 30.02 in 10.0 mi Calm Calm - N/A   Clear
11:53 PM 61.0 °F 55.9 °F 83% 30.02 in 10.0 mi Calm Calm - N/A   Clear